1532430000.63,61378,20.0,73960.8,15.23,2.43,2.59,0,*48
1532430001.85,61379,20.0,73960.0,15.29,3.49,2.99,0,*44
1532430003.1,61380,20.0,73944.3,15.29,2.77,0.37,0,*78
1532430004.33,61381,20.0,73948.8,15.27,0.33,-2.47,0,*5D
1532430005.52,61382,20.0,73960.0,15.27,0.17,-0.65,0,*6A
1532430006.73,61383,20.0,73960.0,15.29,-0.37,-1.17,0,*7E
1532430007.94,61384,20.0,73964.5,15.33,-0.57,-3.15,0,*74
1532430009.13,61385,20.0,73962.8,15.35,-2.83,-6.55,0,*49
1532430010.35,61386,20.0,73966.8,15.35,-1.09,-4.09,0,*40
1532430011.57,61387,20.0,73964.5,15.37,0.75,-1.33,0,*58
1532430012.76,61388,20.0,73960.5,15.39,1.01,-1.75,0,*69
1532430014.0,61389,20.0,73966.8,15.47,1.17,-1.05,0,*61
1532430015.22,61390,20.0,73962.3,15.49,-0.03,-2.07,0,*4F
1532430016.43,61391,20.0,73962.8,15.53,2.21,0.25,0,*75
1532430017.71,61392,20.0,73966.5,15.55,1.21,-1.35,0,*6E
1532430018.94,61393,20.0,73960.0,15.59,0.59,-1.79,0,*55
1532430020.2,61394,20.0,73956.5,15.63,1.55,-1.01,0,*69
1532430021.37,61395,20.0,73960.5,15.69,0.43,-2.91,0,*5E
1532430022.57,61396,20.0,73966.0,15.73,-0.37,-3.63,0,*74
1532430023.78,61397,20.0,73968.5,15.75,-0.57,-3.27,0,*75
1532430024.95,61398,20.0,73968.8,15.77,-0.29,-3.19,0,*7C
1532430026.16,61399,20.0,73964.8,15.75,-1.63,-4.41,0,*4A
1532430027.37,61400,20.0,73970.3,15.75,1.01,-0.33,0,*55
1532430028.57,61401,20.0,73968.5,15.77,1.97,-0.07,0,*6E
1532430029.83,61402,20.0,73968.8,15.81,3.07,1.33,0,*44
1532430031.09,61403,20.0,73960.3,15.85,2.09,-1.43,0,*64
1532430032.31,61404,20.0,73962.8,15.89,2.73,-0.69,0,*5B
1532430033.51,61405,20.0,73972.3,15.95,4.11,0.59,0,*7B
1532430034.72,61406,20.0,73974.8,15.99,1.05,-2.59,0,*6B
1532430035.93,61407,20.0,73964.0,16.01,0.67,-1.33,0,*52
1532430037.15,61408,20.0,73958.5,16.03,1.51,0.17,0,*71
1532430038.4,61409,20.0,73970.5,16.13,4.27,3.41,0,*45
1532430039.63,61410,20.0,73976.0,16.17,4.79,4.19,0,*48
1532430040.86,61411,20.0,73962.8,16.23,7.15,6.39,0,*47
1532430042.1,61412,20.0,73958.3,16.33,9.29,8.33,0,*40
1532430043.28,61413,20.0,73962.0,16.39,7.97,6.29,0,*45
1532430044.53,61414,20.0,73964.3,16.41,7.95,6.73,0,*40
1532430045.77,61415,20.0,73966.3,16.41,6.65,5.95,0,*44
1532430046.98,61416,20.0,73962.3,16.39,7.59,6.53,0,*4F
1532430048.16,61417,20.0,73956.5,16.39,7.45,7.01,0,*45
1532430049.39,61418,20.0,73944.8,16.39,7.69,7.65,0,*46
1532430050.62,61419,20.0,73944.8,16.41,8.97,8.79,0,*44
1532430051.86,61420,20.0,73972.8,16.41,8.83,8.51,0,*41
1532430053.1,61421,20.0,73966.8,16.39,7.69,6.91,0,*46
1532430054.31,61422,20.0,73954.8,16.39,7.77,6.79,0,*4C
1532430055.5,61423,20.0,73944.8,16.39,8.23,7.97,0,*42
1532430056.74,61424,20.0,73946.8,16.39,8.59,8.47,0,*4A
1532430057.97,61425,20.0,73970.3,16.39,8.89,9.11,0,*44
1532430059.17,61426,20.0,73952.8,16.39,10.13,10.33,0,*45
1532430060.42,61427,20.0,73946.8,16.41,11.33,11.81,0,*40
1532430061.64,61428,20.0,73966.8,16.45,11.27,11.93,0,*4D
1532430062.86,61429,20.0,73982.0,16.47,11.51,12.47,0,*45
1532430064.09,61430,20.0,73976.5,16.49,11.37,12.23,0,*41
1532430065.28,61431,20.0,73952.5,16.53,10.93,11.51,0,*42
1532430066.46,61432,20.0,73954.3,16.53,8.27,8.65,0,*48
1532430067.7,61433,20.0,73944.3,16.51,9.11,9.63,0,*48
1532430068.97,61434,20.0,73948.0,16.51,9.35,9.81,0,*45
1532430070.24,61435,20.0,73952.3,16.51,9.15,9.49,0,*42
1532430071.46,61436,20.0,73948.5,16.51,9.03,9.29,0,*40
1532430072.65,61437,20.0,73944.3,16.49,9.67,10.03,0,*7A
1532430073.9,61438,20.0,73942.5,16.47,9.99,10.23,0,*78
1532430075.11,61439,20.0,73946.0,16.49,9.03,9.35,0,*4B
1532430076.37,61440,20.0,73946.0,16.47,8.97,9.11,0,*41
1532430077.61,61441,20.0,73942.0,16.43,8.29,8.59,0,*4C
1532430078.85,61442,20.0,73922.5,16.41,8.79,8.93,0,*4E
1532430080.09,61443,20.0,73938.5,16.41,8.19,8.37,0,*47
1532430081.3,61444,20.0,73938.8,16.39,8.69,8.93,0,*46
1532430082.57,61445,20.0,73946.8,16.33,8.55,8.71,0,*4E
1532430083.8,61446,20.0,73938.5,16.33,8.65,8.75,0,*4A
1532430085.04,61447,20.0,73926.0,16.31,8.37,8.51,0,*48
1532430086.3,61448,20.0,73942.5,16.29,7.77,7.91,0,*46
1532430087.53,61449,20.0,73952.5,16.23,5.77,5.77,0,*45
1532430088.76,61450,20.0,73942.3,16.19,3.97,3.67,0,*4B
1532430089.94,61451,20.0,73930.3,16.11,4.15,4.27,0,*4C
1532430091.14,61452,20.0,73932.0,16.05,4.45,4.45,0,*4B
1532430092.34,61453,20.0,73922.8,15.97,5.11,5.15,0,*46
1532430093.53,61454,20.0,73906.3,15.93,5.45,5.49,0,*4D
1532430094.74,61455,20.0,73926.8,15.89,5.07,5.19,0,*44
1532430095.97,61456,20.0,73956.3,15.83,4.75,4.67,0,*41
1532430097.19,61457,20.0,73964.5,15.79,5.45,5.51,0,*43
1532430098.39,61458,20.0,73976.3,15.73,5.27,5.33,0,*46
1532430099.62,61459,20.0,73970.3,15.69,2.47,2.17,0,*4C
1532430100.85,61460,20.0,73962.5,15.57,2.47,2.47,0,*4E
1532430102.09,61461,20.0,73968.0,15.51,2.61,2.51,0,*4A
1532430103.31,61462,20.0,73960.0,15.45,4.01,4.11,0,*4E
1532430104.5,61463,20.0,73956.5,15.39,5.11,5.23,0,*44
1532430105.73,61464,20.0,73960.8,15.37,5.15,5.05,0,*4D
1532430106.93,61465,20.0,73966.0,15.31,5.71,5.85,0,*40
1532430108.16,61466,20.0,73968.5,15.31,6.39,6.43,0,*45
1532430109.39,61467,20.0,73964.3,15.29,7.05,7.27,0,*40
1532430110.63,61468,20.0,73954.0,15.29,6.03,6.13,0,*4E
1532430111.87,61469,20.0,73944.3,15.27,4.93,4.97,0,*44
1532430113.1,61470,20.0,73934.8,15.23,5.73,5.73,0,*4C
1532430114.33,61471,20.0,73950.3,15.17,5.95,5.85,0,*4B
1532430115.54,61472,20.0,73954.0,15.17,4.81,4.85,0,*4D
1532430116.75,61473,20.0,73940.5,15.13,4.89,4.93,0,*47
1532430118.0,61474,20.0,73946.5,15.11,6.43,6.61,0,*49
1532430119.2,61475,20.0,73946.5,15.11,6.79,7.01,0,*46
1532430120.41,61476,20.0,73940.3,15.09,7.73,8.05,0,*4C
1532430121.62,61477,20.0,73936.8,15.09,8.23,8.51,0,*46
1532430122.82,61478,20.0,73952.5,15.09,7.87,7.97,0,*4D
1532430124.0,61479,20.0,73954.3,15.09,8.09,8.19,0,*4C
1532430125.18,61480,20.0,73946.0,15.09,6.75,6.97,0,*47
1532430126.38,61481,20.0,73946.0,15.11,7.33,7.55,0,*43
1532430127.62,61482,20.0,73936.3,15.11,7.11,7.29,0,*4B
1532430128.85,61483,20.0,73934.5,15.09,7.61,7.95,0,*43
1532430130.09,61484,20.0,73918.5,15.11,8.19,8.47,0,*4D
1532430131.34,61485,20.0,73940.0,15.11,8.37,8.75,0,*41
1532430132.54,61486,20.0,73944.8,15.11,8.45,8.69,0,*4A
1532430133.75,61487,20.0,73940.5,15.09,7.51,7.65,0,*4B
1532430135.01,61488,20.0,73932.8,15.11,6.87,6.91,0,*4D
1532430136.18,61489,20.0,73914.0,15.09,6.75,6.93,0,*4A
1532430137.36,61490,20.0,73930.0,15.09,6.83,6.93,0,*4B
1532430138.57,61491,20.0,73972.3,15.09,6.73,6.75,0,*4D
1532430139.74,61492,20.0,73972.0,15.05,7.01,7.09,0,*4C
1532430140.98,61493,20.0,73948.5,15.03,6.17,6.21,0,*46
1532430142.19,61494,20.0,73940.3,15.03,6.97,7.09,0,*42
1532430143.43,61495,20.0,73946.3,15.01,7.27,7.65,0,*41
1532430144.67,61496,20.0,73940.5,15.03,8.55,8.69,0,*49
1532430145.89,61497,20.0,73938.5,15.03,9.03,9.21,0,*47
1532430147.09,61498,20.0,73932.8,15.05,7.87,7.97,0,*4F
1532430148.3,61499,20.0,73940.3,15.05,7.59,7.77,0,*43
1532430149.53,61500,20.0,73944.8,15.07,5.67,5.89,0,*4C
1532430150.78,61501,20.0,73944.3,15.03,6.33,6.43,0,*4E
1532430151.99,61502,20.0,73940.3,15.01,7.15,7.37,0,*48
1532430153.2,61503,20.0,73942.3,15.01,7.37,7.61,0,*4A
1532430154.46,61504,20.0,73956.8,15.03,7.87,7.87,0,*4C
1532430155.67,61505,20.0,73950.3,15.01,6.61,6.93,0,*42
1532430156.9,61506,20.0,73944.5,14.99,6.87,6.93,0,*49
1532430158.1,61507,20.0,73944.3,14.99,6.83,6.97,0,*48
1532430159.32,61508,20.0,73946.5,14.93,6.33,6.39,0,*42
1532430160.55,61509,20.0,73938.3,14.93,6.69,6.87,0,*49
1532430161.75,61510,20.0,73920.5,14.91,6.79,7.01,0,*4D
1532430162.99,61511,20.0,73922.0,14.91,6.33,6.43,0,*45
1532430164.22,61512,20.0,73934.8,14.87,6.11,6.13,0,*44
1532430165.48,61513,20.0,73958.8,14.87,6.57,6.43,0,*42
1532430166.69,61514,20.0,73970.3,14.83,5.99,5.95,0,*48
1532430167.89,61515,20.0,73962.3,14.81,6.87,6.83,0,*43
1532430169.13,61516,20.0,73978.3,14.81,7.15,7.19,0,*48
1532430170.38,61517,20.0,73982.5,14.79,7.19,7.15,0,*4E
1532430171.56,61518,20.0,73962.0,14.81,7.05,7.05,0,*4A
1532430172.78,61519,20.0,73942.5,14.77,5.55,5.55,0,*42
1532430174.01,61520,20.0,73970.8,14.75,5.95,5.89,0,*47
1532430175.24,61521,20.0,73974.3,14.75,7.45,7.47,0,*49
1532430176.5,61522,20.0,73954.8,14.71,5.93,5.81,0,*4F
1532430177.68,61523,20.0,73954.5,14.69,7.41,7.51,0,*45
1532430178.9,61524,20.0,73948.3,14.69,8.19,8.29,0,*40
1532430180.11,61525,20.0,73950.0,14.69,7.87,8.01,0,*43
1532430181.34,61526,20.0,73954.5,14.71,8.41,8.45,0,*4C
1532430182.54,61527,20.0,73970.3,14.71,8.65,8.65,0,*49
1532430183.77,61528,20.0,73962.8,14.71,8.09,8.13,0,*4D
1532430184.98,61529,20.0,73956.8,14.71,6.97,7.05,0,*4D
1532430186.18,61530,20.0,73956.8,14.71,7.45,7.41,0,*4B
1532430187.38,61531,20.0,73958.5,14.71,7.51,7.41,0,*4F
1532430188.57,61532,20.0,73958.5,14.69,7.51,7.45,0,*41
1532430189.8,61533,20.0,73956.3,14.71,7.61,7.51,0,*4F
1532430191.0,61534,20.0,73950.8,14.71,7.97,8.09,0,*43
1532430192.24,61535,20.0,73952.3,14.75,6.17,5.99,0,*4B
1532430193.49,61536,20.0,73958.5,14.71,5.85,5.81,0,*4D
1532430194.71,61537,20.0,73950.8,14.69,6.13,6.33,0,*43
1532430195.92,61538,20.0,73948.0,14.69,7.09,7.11,0,*47
1532430197.13,61539,20.0,73954.3,14.69,7.09,7.19,0,*4E
1532430198.38,61540,20.0,73948.5,14.67,7.73,7.83,0,*40
1532430199.59,61541,20.0,73942.5,14.67,7.37,7.51,0,*4E
1532430200.79,61542,20.0,73944.3,14.67,6.21,6.21,0,*4D
1532430202.05,61543,20.0,73946.3,14.67,7.61,7.73,0,*4F
1532430203.29,61544,20.0,73940.0,14.67,7.15,7.29,0,*44
1532430204.48,61545,20.0,73938.0,14.65,7.37,7.47,0,*4F
1532430205.7,61546,20.0,73938.0,14.65,6.03,5.93,0,*41
1532430206.93,61547,20.0,73940.5,14.61,5.93,5.93,0,*4E
1532430208.16,61548,20.0,73940.0,14.61,6.73,6.73,0,*41
1532430209.36,61549,20.0,73944.0,14.57,6.83,6.73,0,*4A
1532430210.59,61550,20.0,73950.8,14.59,6.17,6.07,0,*42
1532430211.8,61551,20.0,73950.8,14.57,5.77,5.59,0,*40
1532430212.97,61552,20.0,73946.0,14.57,5.45,5.45,0,*4F
1532430214.2,61553,20.0,73950.8,14.53,5.55,5.51,0,*4E
1532430215.38,61554,20.0,73942.3,14.47,5.49,5.33,0,*45
1532430216.6,61555,20.0,73930.0,14.47,6.39,6.57,0,*41
1532430217.85,61556,20.0,73942.0,14.45,6.51,6.57,0,*4E
1532430219.11,61557,20.0,73944.3,14.45,5.81,5.89,0,*41
1532430220.35,61558,20.0,73950.0,14.43,6.35,6.47,0,*45
1532430221.59,61559,20.0,73940.8,14.43,6.35,6.35,0,*41
1532430222.8,61560,20.0,73940.5,14.39,5.71,5.81,0,*49
1532430224.0,61561,20.0,73936.5,14.39,5.81,5.71,0,*48
1532430225.21,61562,20.0,73942.5,14.37,5.45,5.49,0,*46
1532430226.44,61563,20.0,73946.0,14.37,5.95,5.89,0,*46
1532430227.68,61564,20.0,73936.8,14.35,6.57,6.47,0,*4F
1532430228.91,61565,20.0,73944.5,14.33,6.11,5.85,0,*47
1532430230.13,61566,20.0,73944.0,14.31,6.33,6.17,0,*4E
1532430231.36,61567,20.0,73946.8,14.31,6.53,6.51,0,*4B
1532430232.58,61568,20.0,73940.3,14.31,5.89,5.63,0,*42
1532430233.79,61569,20.0,73940.8,14.27,5.85,5.67,0,*4C
1532430235.0,61570,20.0,73946.3,14.27,6.07,5.93,0,*46
1532430236.24,61571,20.0,73950.8,14.23,6.47,6.43,0,*49
1532430237.44,61572,20.0,73952.3,14.23,5.81,5.63,0,*42
1532430238.67,61573,20.0,73952.8,14.23,6.53,6.35,0,*4F
1532430239.89,61574,20.0,73952.5,14.21,6.07,5.99,0,*4E
1532430241.11,61575,20.0,73954.5,14.21,6.29,6.07,0,*47
1532430242.36,61576,20.0,73956.3,14.21,6.69,6.69,0,*48
1532430243.6,61577,20.0,73966.3,14.21,6.97,6.65,0,*44
1532430244.85,61578,20.0,73960.5,14.21,5.51,5.27,0,*47
1532430246.09,61579,20.0,73958.5,14.19,5.19,4.93,0,*4F
1532430247.31,61580,20.0,73956.3,14.17,6.53,6.53,0,*44
1532430248.52,61581,20.0,73964.0,14.17,6.13,6.03,0,*44
1532430249.73,61582,20.0,73970.5,14.17,6.35,6.29,0,*4B
1532430250.92,61583,20.0,73968.3,14.13,6.33,6.11,0,*43
1532430252.14,61584,20.0,73964.8,14.13,6.73,6.61,0,*47
1532430253.37,61585,20.0,73964.0,14.13,6.73,6.61,0,*46
1532430254.6,61586,20.0,73966.3,14.13,7.15,7.11,0,*42
1532430255.83,61587,20.0,73956.8,14.13,7.27,7.15,0,*46
1532430257.03,61588,20.0,73956.3,14.15,7.05,6.93,0,*40
1532430258.23,61589,20.06,73962.5,14.13,7.37,7.27,0,*48
1532430259.48,61590,20.0,73954.8,14.15,7.19,7.15,0,*4B
1532430260.68,61591,20.0,73956.8,14.15,7.05,7.05,0,*46
1532430261.9,61592,20.0,73952.3,14.15,7.97,7.87,0,*44
1532430263.15,61593,20.0,73954.5,14.15,6.61,6.57,0,*41
1532430264.41,61594,20.0,73952.0,14.15,7.69,7.69,0,*43
1532430265.66,61595,20.0,73952.8,14.15,7.15,7.11,0,*46
1532430266.84,61596,20.0,73950.8,14.17,8.23,8.23,0,*43
1532430268.04,61597,20.0,73952.3,14.19,7.45,7.37,0,*49
1532430269.24,61598,20.0,73948.5,14.19,6.79,6.75,0,*4F
1532430270.46,61599,20.0,73950.8,14.19,6.79,6.65,0,*4F
1532430271.69,61600,20.0,73956.0,14.17,7.15,7.15,0,*4F
1532430272.89,61601,20.0,73954.8,14.17,6.25,6.03,0,*4A
1532430274.12,61602,20.0,73954.5,14.17,7.23,7.19,0,*44
1532430275.29,61603,20.0,73962.0,14.17,7.41,7.45,0,*48
1532430276.54,61604,20.0,73962.8,14.19,6.53,6.53,0,*45
1532430277.76,61605,20.0,73956.5,14.19,6.33,6.53,0,*42
1532430278.99,61606,20.0,73956.5,14.19,6.65,7.01,0,*44
1532430280.22,61607,20.0,73954.3,14.19,7.55,8.13,0,*4B
1532430281.45,61608,20.0,73950.8,14.23,7.83,8.37,0,*40
1532430282.68,61609,20.0,73954.3,14.25,8.01,8.41,0,*43
1532430283.92,61610,20.0,73954.3,14.25,8.51,8.87,0,*44
1532430285.16,61611,20.0,73948.8,14.27,8.41,8.55,0,*49
1532430286.36,61612,20.0,73952.5,14.27,8.61,8.71,0,*4E
1532430287.59,61613,20.0,73960.3,14.31,8.33,8.47,0,*4A
1532430288.81,61614,20.0,73950.0,14.31,7.55,7.77,0,*4E
1532430290.03,61615,20.0,73944.5,14.31,7.59,7.77,0,*43
1532430291.23,61616,20.0,73936.5,14.31,6.61,6.75,0,*49
1532430292.45,61617,20.06,73946.0,14.25,7.29,7.45,0,*42
1532430293.63,61618,20.0,73942.8,14.27,7.29,7.45,0,*4F
1532430294.86,61619,20.0,73948.3,14.25,7.19,7.05,0,*4B
1532430296.12,61620,20.0,73952.3,14.25,6.61,6.65,0,*48
1532430297.38,61621,20.0,73944.3,14.25,6.65,6.65,0,*4D
1532430298.61,61622,20.0,73944.5,14.23,7.15,7.11,0,*4C
1532430299.87,61623,20.0,73962.8,14.21,6.91,6.91,0,*4B
1532430301.11,61624,20.0,73958.8,14.21,6.65,6.75,0,*4D
1532430302.33,61625,20.0,73952.0,14.21,6.21,6.29,0,*45
1532430303.56,61626,20.0,73960.3,14.17,6.13,6.17,0,*4F
1532430304.74,61627,20.0,73968.8,14.17,6.75,6.75,0,*4A
1532430305.93,61628,20.0,73950.5,14.15,5.45,5.41,0,*43
1532430307.13,61629,20.06,73948.5,14.15,6.93,6.83,0,*47
1532430308.39,61630,20.0,73938.3,14.15,6.47,6.51,0,*49
1532430309.61,61631,20.0,73938.5,14.13,6.33,6.43,0,*4E
1532430310.78,61632,20.06,73956.8,14.13,6.79,7.01,0,*44
1532430312.0,61633,20.0,73948.3,14.13,6.47,6.57,0,*4A
1532430313.25,61634,20.0,73946.5,14.15,6.91,7.15,0,*47
1532430314.46,61635,20.0,73936.8,14.13,8.27,8.75,0,*4A
1532430315.71,61636,20.0,73958.8,14.15,8.51,8.97,0,*42
1532430316.93,61637,20.0,73954.0,14.19,7.45,7.91,0,*4C
1532430318.16,61638,20.0,73954.0,14.19,8.37,9.03,0,*4C
1532430319.39,61639,20.06,73960.3,14.23,7.83,8.47,0,*45
1532430320.59,61640,20.0,73954.0,14.23,8.59,9.29,0,*4A
1532430321.83,61641,20.0,73956.5,14.27,8.55,8.97,0,*47
1532430323.04,61642,20.0,73950.8,14.25,8.01,8.45,0,*48
1532430324.25,61643,20.0,73948.5,14.27,8.33,8.87,0,*44
1532430325.46,61644,20.06,73958.0,14.27,8.41,8.61,0,*4E
1532430326.67,61645,20.0,73958.3,14.35,7.95,8.05,0,*48
1532430327.88,61646,20.0,73942.3,14.31,7.87,7.97,0,*48
1532430329.14,61647,20.0,73948.3,14.33,7.83,7.95,0,*4D
1532430330.32,61648,20.0,73948.3,14.27,7.33,7.45,0,*41
1532430331.53,61649,20.06,73964.8,14.31,7.91,8.01,0,*40
1532430332.74,61650,20.0,73950.8,14.31,7.79,7.87,0,*4F
1532430333.98,61651,20.0,73936.8,14.31,6.51,6.51,0,*4F
1532430335.19,61652,20.0,73940.3,14.27,7.05,7.15,0,*4A
1532430336.4,61653,20.0,73946.5,14.31,7.97,8.13,0,*4E
1532430337.62,61654,20.0,73938.3,14.27,7.55,7.73,0,*49
1532430338.8,61655,20.0,73934.5,14.27,6.07,6.25,0,*4C
1532430340.03,61656,20.0,73942.5,14.25,6.93,7.15,0,*42
1532430341.26,61657,20.06,73940.8,14.21,5.29,5.27,0,*46
1532430342.48,61658,20.0,73934.3,14.21,5.63,5.63,0,*47
1532430343.69,61659,20.0,73932.8,14.21,6.11,6.29,0,*4D
1532430344.9,61660,20.0,73938.5,14.17,6.29,6.35,0,*44
1532430346.12,61661,20.0,73932.3,14.15,5.71,5.77,0,*4C
1532430347.38,61662,20.0,73934.8,14.15,6.51,6.61,0,*4A
1532430348.58,61663,20.0,73932.5,14.11,5.15,5.15,0,*4C
1532430349.79,61664,20.0,73938.0,14.09,6.97,7.11,0,*4D
1532430351.0,61665,20.0,73938.0,14.11,6.97,6.97,0,*4A
1532430352.2,61666,20.0,73932.3,14.09,6.47,6.29,0,*48
1532430353.41,61667,20.0,73930.3,14.09,6.87,6.97,0,*40
1532430354.61,61668,20.0,73928.5,14.09,6.17,6.29,0,*43
1532430355.84,61669,20.06,73928.8,14.03,6.79,6.91,0,*43
1532430357.09,61670,20.0,73920.3,14.03,6.47,6.61,0,*49
1532430358.29,61671,20.0,73918.5,14.03,5.99,5.99,0,*4C
1532430359.52,61672,20.0,73920.5,14.03,7.09,7.11,0,*46
1532430360.73,61673,20.0,73914.0,14.01,7.27,7.37,0,*4D
1532430361.92,61674,20.0,73920.5,14.01,6.97,6.97,0,*4B
1532430363.11,61675,20.06,73924.0,13.97,6.25,6.33,0,*45
1532430364.33,61676,20.0,73918.8,13.97,6.53,6.53,0,*41
1532430365.57,61677,20.0,73928.0,13.99,4.97,4.85,0,*4D
1532430366.83,61678,20.0,73932.5,13.91,4.67,4.67,0,*49
1532430368.06,61679,20.0,73936.8,13.91,5.15,5.27,0,*49
1532430369.28,61680,20.0,73932.5,13.87,6.53,6.65,0,*4C
1532430370.49,61681,20.0,73922.5,13.87,5.63,5.73,0,*49
1532430371.71,61682,20.0,73920.3,13.87,6.61,6.65,0,*4F
1532430372.98,61683,20.06,73922.5,13.85,7.65,7.73,0,*4F
1532430374.21,61684,20.06,73920.3,13.85,7.51,7.61,0,*4C
1532430375.47,61685,20.0,73930.3,13.91,7.69,7.83,0,*4F
1532430376.71,61686,20.0,73924.5,13.89,8.13,8.13,0,*41
1532430377.92,61687,20.0,73926.5,13.89,7.95,8.01,0,*42
1532430379.13,61688,20.0,73940.3,13.89,8.59,8.69,0,*4C
1532430380.31,61689,20.06,73942.3,13.93,7.97,8.15,0,*40
1532430381.53,61690,20.06,73938.3,13.93,9.11,9.43,0,*4A
1532430382.76,61691,20.0,73928.0,13.99,9.71,9.89,0,*41
1532430383.97,61692,20.06,73934.0,14.01,9.47,9.57,0,*42
1532430385.18,61693,20.06,73934.3,14.01,9.77,9.95,0,*4E
1532430386.4,61694,20.0,73932.0,14.05,9.99,10.23,0,*78
1532430387.61,61695,20.06,73918.3,14.13,10.17,10.37,0,*45
1532430388.84,61696,20.0,73918.3,14.15,10.61,10.85,0,*48
1532430390.09,61697,20.06,73918.0,14.21,10.99,11.13,0,*47
1532430391.31,61698,20.0,73906.0,14.23,10.51,10.71,0,*4B
1532430392.53,61699,20.06,73916.8,14.31,10.85,11.03,0,*44
1532430393.76,61700,20.0,73902.5,14.33,9.39,9.47,0,*41
1532430394.95,61701,20.06,73930.8,14.35,9.47,9.25,0,*4B
1532430396.18,61702,20.06,73926.0,14.37,9.19,8.65,0,*44
1532430397.39,61703,20.06,73938.8,14.39,8.87,7.47,0,*42
1532430398.64,61704,20.06,73940.5,14.41,10.23,10.03,0,*4B
1532430399.82,61705,20.06,73934.5,14.43,8.83,9.03,0,*43
1532430401.05,61706,20.0,73920.3,14.49,7.97,8.13,0,*40
1532430402.3,61707,20.0,73914.0,14.49,6.53,6.91,0,*4C
1532430403.51,61708,20.06,73926.8,14.43,7.47,7.79,0,*4A
1532430404.72,61709,20.0,73920.5,14.43,7.77,7.45,0,*47
1532430405.95,61710,20.06,73928.0,14.43,7.11,7.27,0,*4B
1532430407.18,61711,20.0,73926.5,14.41,6.17,6.33,0,*4B
1532430408.38,61712,20.06,73926.0,14.39,6.53,6.75,0,*45
1532430409.58,61713,20.0,73938.3,14.39,6.75,6.73,0,*46
1532430410.85,61714,20.06,73940.0,14.37,6.35,6.35,0,*49
1532430412.07,61715,20.06,73944.0,14.35,6.03,5.85,0,*47
1532430413.28,61716,20.06,73932.3,14.33,6.33,6.21,0,*4C
1532430414.51,61717,20.06,73940.3,14.31,7.47,7.47,0,*4C
1532430415.75,61718,20.0,73942.5,14.31,7.23,7.11,0,*42
1532430416.93,61719,20.0,73934.3,14.31,7.59,7.55,0,*4E
1532430418.12,61720,20.06,73940.8,14.31,8.01,8.01,0,*48
1532430419.31,61721,20.06,73940.3,14.31,7.33,7.29,0,*42
1532430420.54,61722,20.06,73932.0,14.31,7.47,7.47,0,*4A
1532430421.71,61723,20.0,73928.8,14.31,7.01,7.01,0,*4B
1532430422.89,61724,20.0,73936.0,14.27,7.29,7.33,0,*40
1532430424.13,61725,20.0,73934.5,14.27,7.77,7.73,0,*4E
1532430425.37,61726,20.06,73936.3,14.25,7.29,7.19,0,*48
1532430426.57,61727,20.06,73934.5,14.25,7.33,7.45,0,*4B
1532430427.76,61728,20.0,73930.5,14.27,7.41,7.55,0,*42
1532430428.99,61729,20.0,73930.5,14.25,8.19,8.41,0,*49
1532430430.23,61730,20.0,73930.3,14.25,8.45,8.55,0,*4D
1532430431.46,61731,20.06,73934.5,14.25,7.09,7.15,0,*40
1532430432.65,61732,20.0,73934.0,14.27,6.07,6.03,0,*48
1532430433.91,61733,20.06,73936.8,14.25,6.47,6.65,0,*4F
1532430435.17,61734,20.06,73940.3,14.21,6.69,6.65,0,*40
1532430436.43,61735,20.0,73936.5,14.19,6.51,6.43,0,*45
1532430437.65,61736,20.06,73936.8,14.17,6.53,6.73,0,*49
1532430438.87,61737,20.0,73940.3,14.19,6.79,6.87,0,*45
1532430440.14,61738,20.0,73948.0,14.15,5.01,5.01,0,*47
1532430441.31,61739,20.06,73940.0,14.13,7.01,7.01,0,*40
1532430442.53,61740,20.06,73940.0,14.09,7.11,7.15,0,*41
1532430443.76,61741,20.06,73946.0,14.09,6.65,6.65,0,*44
1532430444.97,61742,20.06,73948.3,14.11,6.21,6.11,0,*4D
1532430446.19,61743,20.06,73936.0,14.09,6.47,6.57,0,*47
1532430447.43,61744,20.0,73936.0,14.05,6.51,6.65,0,*4A
1532430448.64,61745,20.06,73940.5,14.03,6.33,6.21,0,*49
1532430449.83,61746,20.06,73940.5,14.01,6.21,6.21,0,*4B
1532430451.03,61747,20.0,73940.5,14.01,6.79,6.91,0,*4C
1532430452.24,61748,20.06,73946.3,13.99,6.07,6.11,0,*44
1532430453.47,61749,20.0,73950.3,13.97,5.73,5.81,0,*41
1532430454.73,61750,20.0,73940.0,13.95,4.75,4.63,0,*41
1532430455.96,61751,20.06,73938.3,13.95,6.13,6.07,0,*42
1532430457.23,61752,20.06,73942.5,13.91,6.87,6.91,0,*47
1532430458.49,61753,20.06,73946.0,13.91,7.11,7.15,0,*45
1532430459.73,61754,20.06,73948.8,13.91,6.69,6.69,0,*46
1532430460.94,61755,20.0,73948.5,13.87,7.09,7.23,0,*48
1532430462.14,61756,20.06,73950.3,13.91,7.37,7.33,0,*40
1532430463.33,61757,20.06,73940.0,13.89,6.21,6.21,0,*4C
1532430464.54,61758,20.0,73940.8,13.87,6.17,6.33,0,*4B
1532430465.75,61759,20.06,73938.0,13.85,6.11,5.99,0,*4D
1532430467.02,61760,20.0,73942.5,13.81,6.35,6.35,0,*40
1532430468.2,61761,20.06,73944.3,13.79,7.51,7.51,0,*46
1532430469.44,61762,20.06,73944.0,13.79,7.15,7.15,0,*45
1532430470.67,61763,20.06,73948.0,13.81,7.27,7.37,0,*42
1532430471.91,61764,20.06,73946.3,13.81,7.59,7.69,0,*47
1532430473.14,61765,20.06,73948.5,13.81,7.83,8.01,0,*40
1532430474.4,61766,20.06,73946.3,13.85,7.73,7.83,0,*4D
1532430475.63,61767,20.06,73948.5,13.85,7.41,7.47,0,*45
1532430476.83,61768,20.06,73946.8,13.81,6.79,6.83,0,*4D
1532430478.05,61769,20.06,73942.8,13.81,7.33,7.47,0,*4A
1532430479.31,61770,20.06,73948.0,13.81,7.15,7.15,0,*41
1532430480.54,61771,20.06,73946.8,13.81,5.67,5.73,0,*45
1532430481.75,61772,20.06,73946.0,13.77,5.23,5.11,0,*4B
1532430483.03,61773,20.0,73942.5,13.77,6.51,6.51,0,*4B
1532430484.24,61774,20.06,73944.3,13.75,6.87,7.09,0,*49
1532430485.44,61775,20.06,73950.5,13.73,7.37,7.41,0,*48
1532430486.68,61776,20.06,73936.8,13.73,7.09,7.19,0,*4B
1532430487.92,61777,20.06,73928.8,13.75,7.77,7.91,0,*45
1532430489.11,61778,20.0,73924.3,13.75,7.59,7.59,0,*42
1532430490.31,61779,20.06,73926.3,13.77,7.97,8.01,0,*41
1532430491.52,61780,20.06,73978.5,13.75,7.41,7.47,0,*43
1532430492.76,61781,20.06,73960.5,13.75,6.43,6.43,0,*44
1532430493.98,61782,20.06,73950.0,13.73,5.23,5.33,0,*40
1532430495.21,61783,20.06,73944.3,13.69,6.13,6.21,0,*4A
1532430496.43,61784,20.06,73936.5,13.71,6.69,6.69,0,*45
1532430497.7,61785,20.0,73940.0,13.69,6.47,6.47,0,*4D
1532430498.96,61786,20.06,73940.0,13.69,6.43,6.57,0,*4B
1532430500.2,61787,20.06,73938.0,13.67,6.65,6.65,0,*41
1532430501.38,61788,20.0,73924.8,13.67,6.07,5.99,0,*4A
1532430502.61,61789,20.06,73914.5,13.65,5.27,5.37,0,*4C
1532430503.81,61790,20.06,73922.3,13.59,5.19,5.23,0,*43
1532430505.02,61791,20.0,73920.3,13.59,5.67,5.55,0,*4A
1532430506.22,61792,20.06,73922.3,13.55,5.29,5.15,0,*4B
1532430507.48,61793,20.06,73968.5,13.55,6.51,6.39,0,*4B
1532430508.74,61794,20.06,73968.5,13.55,4.93,4.79,0,*46
1532430509.97,61795,20.06,73938.0,13.51,4.31,4.15,0,*41
1532430511.17,61796,20.06,73916.0,13.47,4.45,4.45,0,*43
1532430512.36,61797,20.06,73928.0,13.45,5.23,5.23,0,*40
1532430513.61,61798,20.0,73936.5,13.43,5.81,5.93,0,*4A
1532430514.84,61799,20.06,73950.5,13.43,6.61,6.75,0,*4D
1532430516.07,61800,20.0,73948.3,13.45,7.11,7.23,0,*40
1532430517.27,61801,20.06,73932.3,13.45,6.17,6.29,0,*4D
1532430518.53,61802,20.06,73938.0,13.43,6.35,6.39,0,*49
1532430519.78,61803,20.06,73928.0,13.43,6.73,6.65,0,*43
1532430521.04,61804,20.06,73922.5,13.43,6.17,5.81,0,*4F
1532430522.29,61805,20.06,73918.8,13.43,6.43,6.17,0,*43
1532430523.52,61806,20.06,73936.3,13.45,6.53,6.13,0,*43
1532430524.76,61807,20.0,73944.5,13.45,6.51,6.35,0,*44
1532430525.99,61808,20.06,73930.0,13.47,6.17,6.21,0,*4E
1532430527.22,61809,20.06,73956.5,13.47,7.55,7.87,0,*45
1532430528.43,61810,20.06,73940.3,13.47,6.29,6.21,0,*4A
1532430529.69,61811,20.0,73924.0,13.47,6.39,6.39,0,*43